Location: Milano
(45.4670°N, 9.2000°E)
Time: 05:04:59
(UTC+02:00)

X-37B - Pass Details

Date: 08 August 2021
Orbit: 381 x 393 km, 45.0° (Epoch: 29 August)

Event Time Altitude Azimuth Distance (km) Brightness Sun altitude
Exits shadow 05:09:43 12° 272° (W) 1,285 2.7 -10.8°
Maximum altitude 05:12:35 82° 185° (S) 389 0.5 -10.4°
Drops below altitude 10° 05:15:43 10° 98° (E) 1,397 4.1 -9.9°
Sets 05:17:47 0° 97° (E) 2,249 5.3 -9.6°
